Change the Weather History Date:

Tuesday, November 27, 2012

  Actual Average Record
Temperature  
Mean Temperature 38 °F 44 °F  
Max Temperature 46 °F 52 °F 77 °F (1990)
Min Temperature 30 °F 35 °F 8 °F (1930)
Degree Days  
Heating Degree Days 27 21  
Month to date heating degree days 501 426  
Since 1 July heating degree days 791 668  
Cooling Degree Days 0 0  
Month to date cooling degree days 0 0  
Year to date cooling degree days 1948 1609  
Moisture  
Dew Point 31 °F    
Average Humidity 73    
Maximum Humidity 92    
Minimum Humidity 53    
Precipitation  
Precipitation 0.02 in 0.13 in 2.69 in (1910)
Month to date precipitation 0.75 3.20  
Year to date precipitation 38.54 40.69  
Snow  
Snow 0.00 in 0.00 in 4.80 in (1977)
Month to date snowfall 0.0 0.1  
Since 1 July snowfall 0.0 0.2  
Since 1 September snowfall 0.0 0.2  
Snow Depth 0.00 in    
Sea Level Pressure  
Sea Level Pressure 30.31 in    
Wind  
Wind Speed 7 mph (North)    
Max Wind Speed 17 mph    
Max Gust Speed 22 mph    
Visibility 8 miles    
Events Rain    
T = Trace of Precipitation, MM = Missing Value Source: NWS Daily Summary

Daily Weather History Graph

Daily Weather History Graph

Search for Another Location

Airport or City:

Trip Planner

Search our weather history database for the weather conditions in past years. The results will help you decide how hot, cold, wet, or windy it might be!

Date:

Astronomy

Nov. 27, 2012 Rise Set
Actual Time 7:37 AM EST 5:24 PM EST
Civil Twilight 7:08 AM EST 5:53 PM EST
Nautical Twilight 6:35 AM EST 6:25 PM EST
Astronomical Twilight 6:04 AM EST 6:57 PM EST
Moon 4:54 PM EST (11/27) 6:41 AM EST (11/27)
Length of Visible Light 10h 44m
Length of Day
9h 46m
Waxing Gibbous, 99% of the Moon is Illuminated
Nov 27
Waxing Gibbous
Nov 28
Full
Dec 6
Last Quarter
Dec 13
New
Dec 20
First Quarter

Hourly Weather History & Observations

Time (EST) Temp. Windchill Dew Point Humidity Pressure Visibility Wind Dir Wind Speed Gust Speed Precip Events Conditions
12:56 AM 41.0 °F 33.5 °F 36.0 °F 82% 30.24 in 9.0 mi North 13.8 mph - 0.01 in Rain Light Rain
1:28 AM 39.2 °F 31.2 °F 35.6 °F 87% 30.22 in 7.0 mi North 13.8 mph - 0.00 in Rain Light Rain
1:56 AM 39.0 °F 31.8 °F 36.0 °F 89% 30.23 in 9.0 mi North 11.5 mph - 0.01 in Rain Light Rain
2:04 AM 39.2 °F 32.0 °F 35.6 °F 87% 30.23 in 8.0 mi North 11.5 mph - 0.00 in   Overcast
2:56 AM 37.9 °F 31.5 °F 35.1 °F 89% 30.25 in 8.0 mi North 9.2 mph - 0.00 in Rain Light Rain
3:15 AM 37.4 °F 31.4 °F 35.6 °F 93% 30.24 in 8.0 mi North 8.1 mph - 0.00 in   Overcast
3:37 AM 37.4 °F 29.3 °F 35.6 °F 93% 30.25 in 7.0 mi North 12.7 mph - 0.00 in   Overcast
3:56 AM 37.9 °F 30.9 °F 35.1 °F 89% 30.26 in 7.0 mi North 10.4 mph - 0.00 in   Overcast
4:56 AM 37.0 °F 29.3 °F 34.0 °F 89% 30.26 in 7.0 mi North 11.5 mph - N/A   Mostly Cloudy
5:56 AM 36.0 °F 29.0 °F 33.1 °F 89% 30.28 in 7.0 mi North 9.2 mph - N/A   Mostly Cloudy
6:07 AM 35.6 °F 28.6 °F 32.0 °F 87% 30.27 in 7.0 mi North 9.2 mph - N/A   Overcast
6:56 AM 35.1 °F 27.9 °F 30.9 °F 85% 30.30 in 8.0 mi North 9.2 mph - N/A   Overcast
7:56 AM 35.1 °F 28.6 °F 30.9 °F 85% 30.32 in 7.0 mi North 8.1 mph - N/A   Overcast
8:56 AM 35.1 °F 27.9 °F 30.9 °F 85% 30.34 in 7.0 mi North 9.2 mph - N/A   Mostly Cloudy
9:30 AM 35.6 °F 29.9 °F 30.2 °F 81% 30.34 in 7.0 mi North 6.9 mph - N/A   Scattered Clouds
9:49 AM 37.4 °F 32.1 °F 30.2 °F 75% 30.35 in 7.0 mi NNE 6.9 mph - N/A   Mostly Cloudy
9:56 AM 37.0 °F 29.3 °F 30.0 °F 76% 30.36 in 8.0 mi North 11.5 mph - N/A   Mostly Cloudy
10:39 AM 39.2 °F 32.5 °F 30.2 °F 70% 30.36 in 9.0 mi NNE 10.4 mph - N/A   Scattered Clouds
10:56 AM 39.0 °F 33.4 °F 30.0 °F 70% 30.37 in 10.0 mi NNE 8.1 mph - N/A   Scattered Clouds
11:56 AM 42.8 °F 40.1 °F 28.4 °F 57% 30.35 in 10.0 mi Variable 4.6 mph - N/A   Partly Cloudy
12:56 PM 44.1 °F 39.5 °F 30.0 °F 58% 30.33 in 10.0 mi NNE 8.1 mph - N/A   Scattered Clouds
1:56 PM 45.0 °F 40.6 °F 30.0 °F 56% 30.31 in 10.0 mi NNW 8.1 mph - N/A   Scattered Clouds
2:56 PM 44.1 °F 39.5 °F 28.0 °F 53% 30.29 in 10.0 mi NNE 8.1 mph - N/A   Scattered Clouds
3:56 PM 44.1 °F 39.5 °F 28.0 °F 53% 30.31 in 10.0 mi North 8.1 mph - N/A   Scattered Clouds
4:56 PM 42.1 °F 40.2 °F 26.1 °F 53% 30.31 in 10.0 mi North 3.5 mph - N/A   Scattered Clouds
5:56 PM 41.0 °F 39.0 °F 26.1 °F 55% 30.33 in 10.0 mi North 3.5 mph - N/A   Scattered Clouds
6:56 PM 39.9 °F 37.8 °F 26.1 °F 58% 30.33 in 10.0 mi North 3.5 mph - N/A   Partly Cloudy
7:56 PM 35.1 °F 32.2 °F 25.0 °F 67% 30.35 in 10.0 mi WNW 3.5 mph - N/A   Clear
8:56 PM 37.0 °F - 26.1 °F 65% 30.35 in 10.0 mi Calm Calm - N/A   Clear
9:56 PM 32.0 °F 26.4 °F 26.1 °F 79% 30.34 in 9.0 mi SSE 5.8 mph - N/A   Clear
10:56 PM 33.1 °F 30.0 °F 28.0 °F 82% 30.34 in 8.0 mi SE 3.5 mph - N/A   Clear
11:56 PM 30.9 °F - 27.0 °F 85% 30.35 in 8.0 mi Calm Calm - N/A   Clear